Flag for United Kingdom Weather past 2 weeks in Cheltenham, England, United Kingdom

Now
50 °F

Scattered clouds.


Feels Like: 47 °F
Forecast: 47 / 59 °F
Wind: 7 mph from Southwest

Location: Staverton Private

Current Time: Oct 22, 2014 at 9:14:03 AM

Latest Report: Oct 22, 2014 at 8:50 AM


Visibility: N/A

Pressure: 30.30 "Hg

Humidity: 82%

Dew point: 45 °F

Location of CheltenhamLocation

Historic Weather in Cheltenham — Graph

°F

Cheltenham temperature yesterday

Maximum temperature yesterday: 57 °F (at 6:50 AM)
Minimum temperature yesterday: 48 °F (at 5:20 PM)
Average temperature yesterday: 53 °F

Past Weeks' High & Low Weather Summary

 TemperatureHumidityPressure
High66 °F (Oct 17, 12:20 PM)100% (Oct 11, 8:20 AM)30.30 "Hg (Oct 11, 8:20 AM)
Low39 °F (Oct 12, 8:50 AM)48% (Oct 7, 1:50 PM)29.24 "Hg (Oct 8, 2:20 PM)
Average56 °F83%29.68 "Hg
* Reported Oct 7 8:20 AM — Oct 22 8:20 AM, Cheltenham, Weather by CustomWeather, © 2014

Note: Actual official high and low records may vary slightly from our data, if they occured in-between our weather recording intervals... More about our weather records

Advertising

Cheltenham weather history for previous 24 hours

 ConditionsComfort  
Time TempWeatherWind HumidityBarometerVisibility
8:20 AM
Oct 22
46 °FPassing clouds.2 mph87%30.30 "HgN/A
7:50 AM45 °FClear.3 mph87%30.27 "Hg10 mi
6:50 AM45 °FClear.3 mph87%30.27 "Hg10 mi
6:50 PM
Oct 21
48 °FPassing clouds.13 mph71%30.04 "HgN/A
6:20 PM48 °FPassing clouds.9 mph76%29.98 "HgN/A
5:50 PM48 °FScattered showers. Passing clouds.7 mph82%29.98 "HgN/A
5:20 PM48 °FScattered showers. Scattered clouds.10 mph82%29.95 "HgN/A
4:50 PM50 °FSprinkles. Scattered clouds.16 mph82%29.92 "HgN/A
4:20 PM55 °FScattered showers. Scattered clouds.22 mph59%29.89 "HgN/A
3:50 PM54 °FScattered showers. Passing clouds.24 mph58%29.89 "HgN/A
3:20 PM55 °FPassing clouds.25 mph59%29.86 "HgN/A
2:50 PM55 °FPassing clouds.24 mph59%29.83 "HgN/A
2:20 PM55 °FScattered showers. Passing clouds.22 mph63%29.83 "HgN/A
1:50 PM55 °FPassing clouds.25 mph63%29.80 "HgN/A
1:20 PM55 °FPassing clouds.28 mph59%29.77 "HgN/A
12:50 PM55 °FPassing clouds.25 mph59%29.77 "HgN/A
12:20 PM55 °FPassing clouds.22 mph63%29.74 "HgN/A
11:50 AM54 °FPassing clouds.24 mph67%29.74 "HgN/A
11:20 AM54 °FPassing clouds.17 mph67%29.71 "HgN/A
10:50 AM52 °FPassing clouds.15 mph72%29.71 "HgN/A
10:20 AM52 °FScattered clouds.16 mph72%29.68 "HgN/A
9:50 AM54 °FScattered clouds.10 mph67%29.68 "HgN/A
9:20 AM54 °FPassing clouds.13 mph67%29.65 "HgN/A
Weather by CustomWeather, © 2014

See weather overviewHow to use our weather pages